CZ-4B R/B - Orbit

View from above orbital plane
View from above orbital plane
View from above satellite
View from above satellite

Ground track
Ground track

The orbit data is extracted from the following two-line orbital elements,

1 33410U 08053C   13140.48200178  .00002383  00000-0  20416-3 0  4993
2 33410 097.5422 128.1979 0137284 136.5845 224.6285 14.91411156248271
Epoch (UTC): 20 May 2013 11:34:04
Eccentricity: 0.0137284
inclination: 97.5422°
perigee height: 498 km
apogee height: 689 km
right ascension of ascending node: 128.1979°
argument of perigee: 136.5845°
revolutions per day: 14.91411156
mean anomaly at epoch: 224.6285°
orbit number at epoch: 24827

The dashed part of the orbit path shows where the satellite is in the earth's shadow,  

Developed and maintained by Chris Peat, Heavens-Above GmbH. Please read the updated FAQ before sending e-mail. Imprint. DLR